Location: Handeloh
(53.2500°N, 9.8330°E)
Time: 22:50:55
(UTC+01:00)

Altair - All Passes

Search period start: 11 November 2019 00:00
Search period end: 21 November 2019 00:00
Orbit: 1502 x 1682 km, 47.2° (Epoch: 10 November)

Date Brightness Start Highest point End Pass type
(mag) Time Alt. Az. Time Alt. Az. Time Alt. Az.
11 Nov - 04:20:44 10° S 04:27:23 23° SE 04:34:07 10° E visible
11 Nov - 06:21:40 10° SW 06:30:20 49° SSE 06:39:14 10° E visible
11 Nov - 08:25:08 10° WSW 08:34:12 62° S 08:43:35 10° ESE daylight
11 Nov - 10:29:17 10° W 10:38:02 46° SSW 10:47:06 10° SE daylight
11 Nov - 12:34:30 10° W 12:41:00 21° SW 12:47:39 10° S daylight
12 Nov - 03:56:04 10° S 04:02:24 21° SE 04:08:47 10° E visible
12 Nov - 05:56:40 10° SW 06:05:16 47° SSE 06:14:04 10° E visible
12 Nov - 08:00:02 10° WSW 08:09:04 62° S 08:18:25 10° ESE daylight
12 Nov - 10:04:09 10° W 10:12:57 48° SSW 10:22:03 10° SE daylight
12 Nov - 12:09:12 10° W 12:15:59 23° SW 12:22:56 10° S daylight
13 Nov - 03:31:26 10° S 03:37:25 20° SE 03:43:25 10° E visible
13 Nov - 05:31:41 10° SW 05:40:12 45° SSE 05:48:53 10° E visible
13 Nov - 07:34:56 10° WSW 07:43:57 61° S 07:53:16 10° E daylight
13 Nov - 09:39:01 10° W 09:47:51 49° SSW 09:56:59 10° SE daylight
13 Nov - 11:43:56 10° W 11:50:58 24° SW 11:58:11 10° S daylight
14 Nov - 03:06:51 10° S 03:12:26 18° SE 03:18:02 10° E visible
14 Nov - 05:06:42 10° SW 05:15:08 43° SSE 05:23:43 10° E visible
14 Nov - 07:09:51 10° WSW 07:18:50 61° S 07:28:06 10° E daylight
14 Nov - 09:13:54 10° W 09:22:46 51° SSW 09:31:54 10° SE daylight
14 Nov - 11:18:41 10° W 11:25:57 26° SW 11:33:24 10° S daylight
15 Nov - 02:42:22 10° SSE 02:47:28 16° SE 02:52:35 10° E visible
15 Nov - 04:41:44 10° SW 04:50:04 41° SSE 04:58:32 10° E visible
15 Nov - 06:44:45 10° WSW 06:53:44 61° S 07:02:57 10° E visible
15 Nov - 08:48:47 10° W 08:57:40 53° SSW 09:06:49 10° SE daylight
15 Nov - 10:53:28 10° W 11:00:55 28° SW 11:08:34 10° SSE daylight
16 Nov - 02:17:58 10° SSE 02:22:30 15° SE 02:27:03 10° E visible
16 Nov - 04:16:47 10° SSW 04:25:02 39° SSE 04:33:22 10° E visible
16 Nov - 06:19:40 10° WSW 06:28:37 60° S 06:37:48 10° E visible
16 Nov - 08:23:40 10° W 08:32:34 54° SSW 08:41:43 10° ESE daylight
16 Nov - 10:28:15 10° W 10:35:52 29° SW 10:43:43 10° SSE daylight
17 Nov - 01:53:42 10° SSE 01:57:33 13° SE 02:01:24 10° E visible
17 Nov - 03:51:51 10° SSW 03:59:58 37° SSE 04:08:11 10° E visible
17 Nov - 05:54:35 10° WSW 06:03:31 59° S 06:12:39 10° E visible
17 Nov - 07:58:33 10° W 08:07:28 55° SSW 08:16:38 10° ESE daylight
17 Nov - 10:03:03 10° W 10:10:50 31° SW 10:18:51 10° SSE daylight
18 Nov - 01:29:39 10° SE 01:32:36 12° SE 01:35:32 10° ESE visible
18 Nov - 03:26:56 10° SSW 03:34:56 35° SE 03:43:00 10° E visible
18 Nov - 05:29:30 10° WSW 05:38:25 58° S 05:47:29 10° E visible
18 Nov - 07:33:26 10° W 07:42:21 57° SSW 07:51:31 10° ESE daylight
18 Nov - 09:37:52 10° W 09:45:47 33° SW 09:53:56 10° SSE daylight
18 Nov - 11:47:14 10° WSW 11:48:06 10° WSW 11:48:58 10° SW daylight
19 Nov - 01:06:13 10° SE 01:07:39 10° ESE 01:09:05 10° ESE visible
19 Nov - 03:02:02 10° SSW 03:09:54 34° SE 03:17:49 10° E visible
19 Nov - 05:04:26 10° WSW 05:13:19 57° SSE 05:22:20 10° E visible
19 Nov - 07:08:19 10° W 07:17:14 58° SSW 07:26:25 10° ESE visible
19 Nov - 09:12:42 10° W 09:20:45 35° SW 09:29:01 10° SSE daylight
19 Nov - 11:20:25 10° WSW 11:23:09 12° SW 11:25:54 10° SW daylight
20 Nov - 02:37:09 10° SSW 02:44:52 32° SE 02:52:36 10° E visible
20 Nov - 04:39:22 10° WSW 04:48:13 56° SSE 04:57:12 10° E visible
20 Nov - 06:43:12 10° W 06:52:09 59° S 07:01:18 10° ESE visible
20 Nov - 08:47:33 10° W 08:55:42 36° SSW 09:04:04 10° SSE daylight
20 Nov - 10:54:29 10° WSW 10:58:11 13° SW 11:01:55 10° SSW daylight
